When you browse on this site, cookies collect data to enhance your experience and personalize the content and advertising you see.
Visit our Privacy Policy to learn more. By continuing to use the site, you agree to this use of cookies and data.
  • In Austria
  • List of Countries
  • For 7 days
  • Water Temperature
  • Satellite Maps
  • Weather Map
  • News
  • Weather Widgets
  • user-avatar
    Login

    Hourly Weather Stolun

    Today, 19 December, Wednesday

    Time Temperature Precipitation Wind Pressure Humidity
    00:00 -1°C° 0 mm 2 mps 763 mmHg 94%
    01:00 -1°C° 0 mm 3 mps 763 mmHg 94%
    02:00 -1°C° 0 mm 3 mps 763 mmHg 93%
    03:00 -1°C° 0 mm 3 mps 762 mmHg 93%
    04:00 -1°C° 0 mm 3 mps 762 mmHg 92%
    05:00 -1°C° 0 mm 3 mps 762 mmHg 91%
    06:00 -2°C° 0 mm 4 mps 761 mmHg 91%
    07:00 -3°C° 0 mm 4 mps 761 mmHg 90%
    08:00 -2°C° 0 mm 4 mps 761 mmHg 87%
    09:00 -2°C° 0 mm 4 mps 761 mmHg 85%
    10:00 -1°C° 0 mm 5 mps 760 mmHg 82%
    11:00 -1°C° 0 mm 4 mps 760 mmHg 80%
    12:00 -1°C° 0 mm 4 mps 760 mmHg 78%
    13:00 0°C° 0 mm 4 mps 759 mmHg 76%
    14:00 0°C° 0 mm 4 mps 759 mmHg 77%
    15:00 -1°C° 0 mm 4 mps 759 mmHg 78%
    16:00 0°C° 0 mm 3 mps 758 mmHg 80%
    17:00 0°C° 0 mm 3 mps 758 mmHg 80%
    18:00 0°C° 0 mm 3 mps 758 mmHg 81%
    19:00 0°C° 0 mm 3 mps 758 mmHg 81%
    20:00 0°C° 0.2 mm 3 mps 758 mmHg 82%
    21:00 0°C° 0.2 mm 3 mps 758 mmHg 83%
    22:00 0°C° 0.2 mm 3 mps 758 mmHg 84%
    23:00 0°C° 0.5 mm 3 mps 758 mmHg 85%

    Tomorrow, 20 December, Thursday

    Time Temperature Precipitation Wind Pressure Humidity
    00:00 0°C° 0.5 mm 3 mps 758 mmHg 87%
    01:00 +1°C° 0.5 mm 2 mps 758 mmHg 89%
    02:00 +1°C° 0.4 mm 2 mps 758 mmHg 90%
    03:00 +1°C° 0.4 mm 2 mps 758 mmHg 91%
    04:00 +1°C° 0.4 mm 2 mps 757 mmHg 92%
    05:00 0°C° 0.3 mm 3 mps 757 mmHg 92%
    06:00 0°C° 0.3 mm 3 mps 757 mmHg 93%
    07:00 0°C° 0.3 mm 3 mps 757 mmHg 93%
    08:00 0°C° 0.1 mm 3 mps 757 mmHg 93%
    09:00 0°C° 0.1 mm 3 mps 757 mmHg 93%
    10:00 0°C° 0.1 mm 3 mps 757 mmHg 92%
    11:00 0°C° 0.1 mm 3 mps 757 mmHg 92%
    12:00 +1°C° 0.1 mm 3 mps 757 mmHg 92%
    13:00 +1°C° 0.1 mm 3 mps 757 mmHg 92%
    14:00 +1°C° 0.2 mm 3 mps 757 mmHg 92%
    15:00 +1°C° 0.2 mm 3 mps 757 mmHg 93%
    16:00 +1°C° 0.2 mm 3 mps 757 mmHg 94%
    17:00 +1°C° 0.3 mm 3 mps 757 mmHg 94%
    18:00 +1°C° 0.3 mm 3 mps 757 mmHg 94%
    19:00 +1°C° 0.3 mm 3 mps 757 mmHg 94%
    20:00 +1°C° 0 mm 3 mps 757 mmHg 93%
    21:00 +1°C° 0 mm 3 mps 757 mmHg 93%
    22:00 +1°C° 0 mm 3 mps 757 mmHg 93%
    23:00 +1°C° 0 mm 3 mps 756 mmHg 93%

    Day after tomorrow, 21 December, Friday

    Time Temperature Precipitation Wind Pressure Humidity
    00:00 +1°C° 0 mm 3 mps 756 mmHg 93%
    01:00 +1°C° 0 mm 3 mps 756 mmHg 93%
    02:00 +1°C° 0 mm 3 mps 756 mmHg 93%
    03:00 +1°C° 0 mm 3 mps 756 mmHg 93%
    04:00 +1°C° 0 mm 3 mps 755 mmHg 92%
    05:00 +1°C° 0 mm 3 mps 755 mmHg 92%
    06:00 0°C° 0 mm 4 mps 755 mmHg 92%
    07:00 +1°C° 0 mm 4 mps 754 mmHg 91%
    08:00 +1°C° 0 mm 4 mps 754 mmHg 91%
    09:00 +1°C° 0 mm 4 mps 754 mmHg 90%
    10:00 +1°C° 0 mm 4 mps 753 mmHg 90%
    11:00 +1°C° 0 mm 4 mps 753 mmHg 89%
    12:00 +3°C° 0 mm 4 mps 752 mmHg 89%
    13:00 +3°C° 0 mm 4 mps 751 mmHg 89%
    14:00 +3°C° 0.4 mm 4 mps 750 mmHg 89%
    15:00 +3°C° 0.4 mm 4 mps 749 mmHg 90%
    16:00 +2°C° 0.4 mm 5 mps 748 mmHg 90%
    17:00 +2°C° 1.6 mm 5 mps 747 mmHg 90%
    18:00 +3°C° 1.6 mm 5 mps 746 mmHg 91%
    19:00 +3°C° 1.6 mm 6 mps 745 mmHg 91%
    20:00 +4°C° 0.6 mm 6 mps 745 mmHg 87%
    21:00 +5°C° 0.6 mm 7 mps 745 mmHg 83%
    22:00 +6°C° 0.6 mm 7 mps 745 mmHg 80%
    23:00 +5°C° 0 mm 7 mps 745 mmHg 79%

    22 December, Saturday

    Time Temperature Precipitation Wind Pressure Humidity
    00:00 +5°C° 0 mm 7 mps 745 mmHg 77%
    01:00 +5°C° 0 mm 7 mps 746 mmHg 76%
    02:00 +5°C° 0 mm 7 mps 746 mmHg 78%
    03:00 +5°C° 0 mm 7 mps 746 mmHg 79%
    04:00 +4°C° 0 mm 7 mps 746 mmHg 80%
    05:00 +4°C° 0 mm 6 mps 746 mmHg 82%
    06:00 +4°C° 0 mm 6 mps 746 mmHg 83%
    07:00 +4°C° 0 mm 6 mps 746 mmHg 85%
    08:00 +5°C° 0 mm 5 mps 746 mmHg 86%
    09:00 +6°C° 0 mm 5 mps 745 mmHg 86%
    10:00 +6°C° 0 mm 5 mps 745 mmHg 87%
    11:00 +6°C° 0.7 mm 4 mps 745 mmHg 89%
    12:00 +5°C° 0.7 mm 4 mps 745 mmHg 92%
    13:00 +5°C° 0.7 mm 3 mps 745 mmHg 94%
    14:00 +5°C° 0.3 mm 4 mps 746 mmHg 93%
    15:00 +6°C° 0.3 mm 5 mps 746 mmHg 91%
    16:00 +6°C° 0.3 mm 5 mps 747 mmHg 89%
    17:00 +6°C° 0.6 mm 5 mps 747 mmHg 89%
    18:00 +6°C° 0.6 mm 5 mps 748 mmHg 89%
    19:00 +6°C° 0.6 mm 5 mps 748 mmHg 89%
    20:00 +6°C° 0.6 mm 5 mps 749 mmHg 89%
    21:00 +6°C° 0.6 mm 5 mps 749 mmHg 90%
    22:00 +5°C° 0.6 mm 5 mps 750 mmHg 90%
    23:00 +6°C° 0.3 mm 5 mps 750 mmHg 88%

    23 December, Sunday

    Time Temperature Precipitation Wind Pressure Humidity
    00:00 +5°C° 0.3 mm 6 mps 751 mmHg 86%
    01:00 +5°C° 0.3 mm 6 mps 751 mmHg 85%
    02:00 +4°C° 0.1 mm 6 mps 752 mmHg 84%
    03:00 +4°C° 0.1 mm 6 mps 752 mmHg 84%
    04:00 +4°C° 0.1 mm 6 mps 753 mmHg 83%
    05:00 +4°C° 0.1 mm 6 mps 753 mmHg 83%
    06:00 +4°C° 0.1 mm 6 mps 753 mmHg 82%
    07:00 +4°C° 0.1 mm 6 mps 753 mmHg 82%
    08:00 +4°C° 0.1 mm 6 mps 754 mmHg 81%
    09:00 +4°C° 0.1 mm 6 mps 754 mmHg 80%
    10:00 +4°C° 0.1 mm 6 mps 754 mmHg 79%
    11:00 +5°C° 0.1 mm 6 mps 754 mmHg 77%
    12:00 +5°C° 0.1 mm 6 mps 754 mmHg 76%
    13:00 +5°C° 0.1 mm 7 mps 754 mmHg 74%
    14:00 +5°C° 0.1 mm 7 mps 754 mmHg 75%
    15:00 +5°C° 0.1 mm 6 mps 754 mmHg 76%
    16:00 +4°C° 0.1 mm 6 mps 755 mmHg 77%
    17:00 +4°C° 0.1 mm 6 mps 755 mmHg 78%
    18:00 +4°C° 0.1 mm 6 mps 755 mmHg 79%
    19:00 +4°C° 0.1 mm 6 mps 756 mmHg 81%
    20:00 +3°C° 0.2 mm 6 mps 757 mmHg 82%
    21:00 +3°C° 0.2 mm 5 mps 757 mmHg 83%
    22:00 +3°C° 0.2 mm 4 mps 758 mmHg 85%
    23:00 +3°C° 0 mm 4 mps 758 mmHg 86%

    24 December, Monday

    Time Temperature Precipitation Wind Pressure Humidity
    00:00 +2°C° 0 mm 3 mps 759 mmHg 88%
    01:00 +3°C° 0 mm 2 mps 760 mmHg 90%
    02:00 +2°C° 0 mm 2 mps 760 mmHg 91%
    03:00 +2°C° 0 mm 2 mps 760 mmHg 92%
    04:00 +2°C° 0 mm 2 mps 760 mmHg 93%
    05:00 +2°C° 0 mm 2 mps 761 mmHg 93%
    06:00 +2°C° 0 mm 2 mps 761 mmHg 93%
    07:00 +2°C° 0 mm 2 mps 761 mmHg 93%
    08:00 +3°C° 0.1 mm 2 mps 762 mmHg 92%
    09:00 +3°C° 0.1 mm 2 mps 762 mmHg 91%
    10:00 +3°C° 0.1 mm 2 mps 762 mmHg 90%
    11:00 +4°C° 0.1 mm 2 mps 762 mmHg 89%
    12:00 +3°C° 0.1 mm 3 mps 763 mmHg 87%
    13:00 +4°C° 0.1 mm 3 mps 763 mmHg 86%
    14:00 +4°C° 0.1 mm 3 mps 763 mmHg 87%
    15:00 +3°C° 0.1 mm 3 mps 763 mmHg 89%
    16:00 +4°C° 0.1 mm 2 mps 763 mmHg 90%
    17:00 +3°C° 0 mm 2 mps 763 mmHg 91%
    18:00 +3°C° 0 mm 2 mps 764 mmHg 92%
    19:00 +3°C° 0 mm 2 mps 764 mmHg 93%
    20:00 +3°C° 0 mm 2 mps 764 mmHg 93%
    21:00 +3°C° 0 mm 2 mps 764 mmHg 93%
    22:00 +3°C° 0 mm 2 mps 764 mmHg 92%
    23:00 +2°C° 0 mm 2 mps 764 mmHg 91%
    Show more